Regional Weather Roundup
Issued by NWS

Home | Current Version | Previous Version | Text Only | Print | Product List | Glossary Off
Versions: 1 2 3 4 5 6 7 8 9 10 11 12 13 14 15 16 17 18 19 20 21 22 23 24 25 26 27 28 29 30 31 32 33 34 35 36 37 38 39 40 41 42 43 44 45 46 47 48 49 50

000
ASUS45 KBOI 111810
RWRID

IDAHO REGIONAL WEATHER ROUNDUP
NATIONAL WEATHER SERVICE BOISE ID
1100 AM MST THU FEB 11 2016

NOTE: "FAIR" INDICATES FEW OR NO CLOUDS BELOW 12000 FEET
WITH NO SIGNIFICANT WEATHER AND/OR OBSTRUCTIONS TO VISIBILITY

IDZ012-014-111900-
SOUTHWEST IDAHO


CITY           SKY/WX    TMP DP  RH WIND       PRES   REMARKS
BOISE          SUNNY     38  29  70 S8        30.40S WCI  32
CALDWELL       PTSUNNY   36  32  85 S3        30.43S
$$

IDZ016-017-111900-
SOUTHCENTRAL IDAHO


CITY           SKY/WX    TMP DP  RH WIND       PRES   REMARKS
BURLEY         SUNNY     36  28  73 NE13      30.38R WCI  27
JEROME         MOSUNNY   29  23  78 NE17      30.39R WCI  17
TWIN FALLS     SUNNY     35  30  82 E5        30.38S WCI  31
$$

IDZ019>023-111900-
SOUTHEAST IDAHO


CITY           SKY/WX    TMP DP  RH WIND       PRES   REMARKS
IDAHO FALLS    CLOUDY    18  15  88 N5        30.44R WCI  11
POCATELLO      CLOUDY    29  21  72 E6        30.43S WCI  23
REXBURG        CLOUDY    24  17  74 N3        30.43R
$$

IDZ006-010-011-018-031-032-111900-
CENTRAL IDAHO MOUNTAINS


CITY           SKY/WX    TMP DP  RH WIND       PRES   REMARKS
MCCALL         CLOUDY    32  29  88 CALM      30.34R
HAILEY         MOSUNNY   30  25  80 CALM      30.39R
STANLEY          N/A     21  14  74 CALM      30.40S
SALMON         CLOUDY    19  16  86 CALM      30.45S
CHALLIS        CLOUDY    20  16  84 CALM      30.39F
$$

IDZ002-004-006-007-026-111900-
NORTHERN IDAHO


CITY           SKY/WX    TMP DP  RH WIND       PRES   REMARKS
LEWISTON       CLOUDY    48  37  65 E7        30.32S
LOWELL           N/A     40  35  83 CALM      30.39F
COEUR D`ALENE  CLOUDY    36  36 100 NE7       30.31F WCI  30
MULLAN PASS    CLOUDY    33  31  92 S5        30.28F WCI  29
$$



USA.gov is the U.S. government's official web portal to all federal, state and local government web resources and services.